"Pseudo-MPEC" for C14XNH5

Created 2025 Jul 7 22:35:04 UT using Find_Orb

Click here for an explanation of pseudo-MPECs

 
 Astrometry: 
     C14XNH5  C2025 07 05.37274321 20 56.737-12 22 59.08   ~76CK 20.26rUNEOCPI41
     C14XNH5  C2025 07 05.41650521 21 10.123-12 24 41.65   ~76CK 21.47gUNEOCPI41
     C14XNH5* C2025 07 06.33197721 26 10.410-13 01 32.92   ~7695 20.19GVNEOCPV00
     C14XNH5  C2025 07 06.33756221 26 12.224-13 01 46.88   ~7695 20.41GVNEOCPV00
     C14XNH5  C2025 07 06.34315021 26 14.032-13 02 01.03   ~7695 20.31GVNEOCPV00
     C14XNH5  C2025 07 06.37720821 26 25.040-13 03 26.10   ~76Bo 20.3 RVNEOCP691
     C14XNH5  C2025 07 06.38155021 26 26.380-13 03 36.50   ~76Bo 20.0 RVNEOCP691
     C14XNH5  C2025 07 06.38576621 26 27.594-13 03 49.04   ~76A5 20.1 GWNEOCPH01
     C14XNH5  C2025 07 06.38590021 26 27.810-13 03 47.90   ~76Bo 20.1 RVNEOCP691
     C14XNH5  C2025 07 06.38975421 26 28.878-13 03 59.03   ~76A5 19.8 GWNEOCPH01
     C14XNH5  C2025 07 06.40038921 26 32.322-13 04 25.69   ~76A5 20.2 GWNEOCPH01
     C14XNH5  C2025 07 06.41214121 26 36.113-13 04 54.93   ~76A5 20.3 GWNEOCPH01
     C14XNH5 |C2025 07 07.31529621 31 49.290-13 42 56.90   ~778Z 19.7 GVNEOCP807
     C14XNH5 |C2025 07 07.31955021 31 50.750-13 43 08.30   ~778Z 20.2 GVNEOCP807
     C14XNH5 |C2025 07 07.32312021 31 51.980-13 43 17.80   ~778Z 20.1 GVNEOCP807
     C14XNH5 |C2025 07 07.33023021 31 54.400-13 43 36.40   ~778Z 20.2 GVNEOCP807
     C14XNH5 |C2025 07 07.33096021 31 54.620-13 43 38.50   ~778Z 20.1 GVNEOCP807
     C14XNH5 KB2025 07 07.33166 21 31 55.894-13 44 24.43   ~779Z 20.6 VZNEOCPH36
     C14XNH5 |C2025 07 07.34091021 31 58.040-13 44 04.60   ~778Z 20.3 GVNEOCP807
     C14XNH5 KB2025 07 07.35493 21 32 03.840-13 45 27.25   ~779Z 20.4 VZNEOCPH36

Station data:
(691) Steward Observatory, Kitt Peak - Spacewatch  (N31.962174 W111.600327)
   US/Arizona.  Observer J. V. Scotti. 0.9-m f/3 reflector + CCD.
(807) Cerro Tololo Observatory, La Serena  (S30.169133 W70.805900)  Chile.
   Observer R. Holmes. 0.61-m f/6.5 astrograph + CCD.
(H01) Magdalena Ridge Observatory, Socorro  (N33.984833 W107.189333)  US/New
   Mexico.  Observers W. H. Ryan, E. V. Ryan. Measurer W. H. Ryan. 2.4-m
   f/8.9 reflector + CCD.
(H36) Sandlot Observatory, Scranton  (N38.797718 W95.706550)  US/Kansas.
   Observer G. Hug. 0.56-m reflector + CCD.
(I41) Palomar Mountain--ZTF  (N33.357336 W116.859780)  US/California.
   Observers B. T. Bolin, Z. T. F. Collaboration. Measurers B. T. Bolin,
   Z.-Y. Lin, F. J. Masci. 1.2-m f/2.4 Schmidt.
(V00) Kitt Peak-Bok  (N31.963125 W111.600190)  US/Arizona.  Observers T. A.
   Pruyne, B. M. Africano, E. J. Christensen, G. A. Farneth, D. C. Fuls, A.
   R. Gibbs, A. D. Grauer, H. Gröller, J. A. Johnson, R. A. Kowalski, S. M.
   Larson, G. J. Leonard, D. Rankin, R. L. Seaman, F. C. Shelly, K. W.
   Wierzchoś. 2.25-m reflector + 4x4K mosaic CCD.

Orbital elements:  C14XNH5
   Perihelion 2025 Sep 1.74036 +/- 0.179 TT = 17:46:07 (JD 2460920.24036)
Epoch 2025 Jul  7.0 TT = JDT 2460863.5   Earth MOID: 0.1042      AutoNEOCP
M 340.61348003 +/- 0.42             (J2000 ecliptic)
n   0.34167071 +/- 0.00642          Peri.  240.47592 +/- 0.17
a   2.02642661 +/- 0.0254           Node   111.65818 +/- 0.040
e   0.5138419 +/- 0.00582           Incl.   14.33596 +/- 0.10
P   2.88467                H 22.13  G  0.15   U  9.4
q 0.98516355 +/- 0.00085    Q 3.06768967 +/- 0.0502
From 20 observations 2025 July 5-7 (47.6 hr); mean residual 0".29
Residuals in arcseconds: 
250705 I41  .69-  .51-    250706 H01  .12+  .05-    250707 807  .21+  .15-    
250705 I41  .39+  .15-    250706 691  .04-  .35+    250707 807  .11+  .01+    
250706 V00  .03-  .05+    250706 H01  .08+  .07-    250707 807  .32-  .16-    
250706 V00  .11+  .12+    250706 H01  .24+  .14-    250707 H36  .18+  .25+    
250706 V00  .16+  .00     250706 H01  .16+  .01-    250707 807  .02-  .03-    
250706 691  .44+  .37+    250707 807  .10-  .10+    250707 H36  .43-  .70-    
250706 691  .44-  .85+    250707 807  .03+  .07-    

Ephemerides (geocentric):
Date (UTC) HH   RA             Dec           delta  r     elong  mag " sig PA
---- --------  ------------   ------------  ------ ------ -----  --- --------
2025 07 07 23  21 35 43.254   -14 12 03.41  .20721 1.1907 144.1 20.4 .203 140
2025 07 08 00  21 35 58.720   -14 13 58.15  .20692 1.1905 144.1 20.4 .222 141
2025 07 08 01  21 36 14.227   -14 15 53.18  .20664 1.1902 144.1 20.4 .240 142
2025 07 08 02  21 36 29.774   -14 17 48.49  .20636 1.1899 144.1 20.4 .260 142
2025 07 08 03  21 36 45.360   -14 19 44.10  .20607 1.1897 144.1 20.4 .279 142
2025 07 08 04  21 37 00.987   -14 21 39.99  .20579 1.1894 144.1 20.4 .299 143
2025 07 08 05  21 37 16.654   -14 23 36.16  .20551 1.1891 144.1 20.4 .320 143
2025 07 08 06  21 37 32.362   -14 25 32.63  .20523 1.1889 144.1 20.4 .341 143
2025 07 08 07  21 37 48.110   -14 27 29.38  .20495 1.1886 144.0 20.4 .362 144
2025 07 08 08  21 38 03.899   -14 29 26.43  .20467 1.1884 144.0 20.4 .384 144
2025 07 08 09  21 38 19.729   -14 31 23.76  .20439 1.1881 144.0 20.4 .407 144
2025 07 08 10  21 38 35.600   -14 33 21.38  .20411 1.1878 144.0 20.4 .430 144
2025 07 08 11  21 38 51.512   -14 35 19.28  .20383 1.1876 144.0 20.4 .453 144
2025 07 08 12  21 39 07.466   -14 37 17.48  .20355 1.1873 144.0 20.3 .477 144
2025 07 08 13  21 39 23.461   -14 39 15.97  .20327 1.1870 144.0 20.3 .501 144
2025 07 08 14  21 39 39.497   -14 41 14.74  .20300 1.1868 144.0 20.3 .525 144
2025 07 08 15  21 39 55.575   -14 43 13.81  .20272 1.1865 144.0 20.3 .551 144
2025 07 08 16  21 40 11.695   -14 45 13.16  .20244 1.1863 143.9 20.3 .576 145
2025 07 08 17  21 40 27.857   -14 47 12.81  .20216 1.1860 143.9 20.3 .602 145
2025 07 08 18  21 40 44.061   -14 49 12.75  .20189 1.1857 143.9 20.3 .629 145
2025 07 08 19  21 41 00.307   -14 51 12.97  .20161 1.1855 143.9 20.3 .656 145
2025 07 08 20  21 41 16.596   -14 53 13.49  .20134 1.1852 143.9 20.3 .683 145
2025 07 08 21  21 41 32.927   -14 55 14.29  .20106 1.1850 143.9 20.3 .711 145
2025 07 08 22  21 41 49.301   -14 57 15.39  .20079 1.1847 143.9 20.3 .740 145
2025 07 08 23  21 42 05.718   -14 59 16.78  .20051 1.1844 143.9 20.3 .769 145
2025 07 09 00  21 42 22.177   -15 01 18.46  .20024 1.1842 143.8 20.3 .799 145
2025 07 09 01  21 42 38.680   -15 03 20.43  .19997 1.1839 143.8 20.3 .829 145
2025 07 09 02  21 42 55.226   -15 05 22.69  .19969 1.1837 143.8 20.3 .859 145
2025 07 09 03  21 43 11.815   -15 07 25.24  .19942 1.1834 143.8 20.3 .890 145
2025 07 09 04  21 43 28.448   -15 09 28.09  .19915 1.1831 143.8 20.3 .922 144
2025 07 09 05  21 43 45.125   -15 11 31.22  .19888 1.1829 143.8 20.3 .954 144
2025 07 09 06  21 44 01.845   -15 13 34.65  .19861 1.1826 143.8 20.3 .986 144
2025 07 09 07  21 44 18.609   -15 15 38.37  .19834 1.1824 143.7 20.3 1.02 144
2025 07 09 08  21 44 35.417   -15 17 42.38  .19807 1.1821 143.7 20.3 1.05 144
2025 07 09 09  21 44 52.270   -15 19 46.68  .19780 1.1818 143.7 20.3 1.09 144
2025 07 09 10  21 45 09.167   -15 21 51.28  .19753 1.1816 143.7 20.3 1.12 144
2025 07 09 11  21 45 26.108   -15 23 56.17  .19726 1.1813 143.7 20.3 1.16 144
2025 07 09 12  21 45 43.094   -15 26 01.34  .19699 1.1811 143.7 20.3 1.19 144
2025 07 09 13  21 46 00.125   -15 28 06.81  .19672 1.1808 143.7 20.3 1.23 144
2025 07 09 14  21 46 17.201   -15 30 12.58  .19645 1.1805 143.6 20.3 1.27 144
2025 07 09 15  21 46 34.322   -15 32 18.63  .19619 1.1803 143.6 20.3 1.30 144
2025 07 09 16  21 46 51.488   -15 34 24.98  .19592 1.1800 143.6 20.3 1.34 144
2025 07 09 17  21 47 08.699   -15 36 31.62  .19565 1.1798 143.6 20.3 1.38 144
2025 07 09 18  21 47 25.956   -15 38 38.55  .19539 1.1795 143.6 20.3 1.42 144
2025 07 09 19  21 47 43.259   -15 40 45.77  .19512 1.1792 143.6 20.3 1.46 144
2025 07 09 20  21 48 00.607   -15 42 53.28  .19486 1.1790 143.5 20.3 1.50 144
2025 07 09 21  21 48 18.002   -15 45 01.09  .19459 1.1787 143.5 20.3 1.54 144
2025 07 09 22  21 48 35.442   -15 47 09.19  .19433 1.1785 143.5 20.2 1.58 144